Location: Omaha
(41.2590°N, 95.9380°W)
Time: 01:45:07
(UTC-05:00)

Vanguard 2 Rocket - Visible Passes

Search period start: 20 July 2018 00:00
Search period end: 30 July 2018 00:00
Orbit: 554 x 3327 km, 32.9° (Epoch: 19 July)

Date Brightness Start Highest point End Pass type
(mag) Time Alt. Az. Time Alt. Az. Time Alt. Az.
20 Jul 8.3 03:07:57 25° SSE 03:07:57 25° SSE 03:14:25 10° E visible
20 Jul 8.2 05:13:45 10° WSW 05:20:27 51° S 05:32:25 10° E visible
21 Jul 9.2 02:11:49 11° ESE 02:11:49 11° ESE 02:12:22 10° ESE visible
21 Jul 7.9 04:17:38 26° SW 04:20:52 43° SSE 04:30:30 10° E visible
22 Jul 7.8 03:21:31 32° SSE 03:21:37 32° SSE 03:28:54 10° E visible
22 Jul 8.2 05:27:54 10° WSW 05:34:35 50° S 05:46:21 10° ESE visible
23 Jul 8.8 02:25:26 16° ESE 02:25:26 16° ESE 02:27:30 10° ESE visible
23 Jul 7.8 04:31:15 23° SW 04:34:56 46° S 04:44:35 10° ESE visible
24 Jul 7.5 03:35:11 37° S 03:35:37 38° SSE 03:43:09 10° E visible
25 Jul 8.5 02:39:09 20° ESE 02:39:09 20° ESE 02:42:04 10° ESE visible
25 Jul 7.8 04:44:58 19° WSW 04:49:06 44° S 04:58:31 10° ESE visible
26 Jul 7.3 03:49:00 38° S 03:49:44 40° S 03:57:16 10° ESE visible
27 Jul 8.3 02:53:05 23° SE 02:53:05 23° SE 02:56:22 10° ESE visible
27 Jul 7.9 04:58:55 16° WSW 05:03:20 39° S 05:12:15 10° ESE visible
28 Jul 7.3 04:03:02 36° SSW 04:03:55 38° S 04:11:14 10° ESE visible
29 Jul 8.2 03:07:14 24° SE 03:07:14 24° SE 03:10:31 10° ESE visible
29 Jul 8.1 05:13:05 13° WSW 05:17:35 31° S 05:25:39 10° SE visible
